East Taunton, MA

6:43 PM EST on February 09, 2016 (GMT -0500)
Taunton Municipal

Weather History for KTAN - November, 2014

Change the Weather History Date:

Saturday, November 8, 2014

  Actual Average (KPYM) Record (KPYM)
Temperature  
Mean Temperature 40 °F -  
Max Temperature 48 °F 53 °F - (-1)
Min Temperature 32 °F 35 °F - (-1)
Degree Days  
Heating Degree Days 25    
Moisture  
Dew Point 26 °F    
Average Humidity 61    
Maximum Humidity 92    
Minimum Humidity 39    
Precipitation  
Precipitation 0.00 in - - ()
Sea Level Pressure  
Sea Level Pressure 29.92 in    
Wind  
Wind Speed 6 mph (WSW)    
Max Wind Speed 10 mph    
Max Gust Speed 17 mph    
Visibility 10 miles    
Events      
Averages and records for this station are not official NWS values.
T = Trace of Precipitation, MM = Missing Value Source: NWS Daily Summary

Daily Weather History Graph

Daily Weather History Graph

Search for Another Location

Airport or City:

Trip Planner

Search our weather history database for the weather conditions in past years. The results will help you decide how hot, cold, wet, or windy it might be!

Date:

Astronomy

Nov. 08, 2014 Rise Set
Actual Time 6:25 AM EST 4:30 PM EST
Civil Twilight 5:55 AM EST 4:59 PM EST
Nautical Twilight 5:22 AM EST 5:32 PM EST
Astronomical Twilight 4:49 AM EST 6:05 PM EST
Moon 6:08 PM EST (11/8) 7:59 AM EST (11/8)
Length of Visible Light 11h 03m
Length of Day
10h 05m
Waning Gibbous, 96% of the Moon is Illuminated
Nov 8
Waning Gibbous
Nov 14
Last Quarter
Nov 22
New
Nov 29
First Quarter
Dec 6
Full

Hourly Weather History & Observations

Time (EST) Temp. Windchill Dew Point Humidity Pressure Visibility Wind Dir Wind Speed Gust Speed Precip Events Conditions
12:52 AM 39.9 °F 33.4 °F 26.1 °F 58% 29.82 in 10.0 mi WNW 10.4 mph 17.3 mph N/A   Scattered Clouds
1:52 AM 37.9 °F 32.7 °F 27.0 °F 65% 29.84 in 10.0 mi West 6.9 mph - N/A   Clear
2:52 AM 37.0 °F 33.3 °F 25.0 °F 62% 29.86 in 10.0 mi West 4.6 mph - N/A   Mostly Cloudy
3:52 AM 35.1 °F 29.3 °F 25.0 °F 67% 29.88 in 10.0 mi West 6.9 mph - N/A   Clear
4:52 AM 34.0 °F 29.8 °F 23.0 °F 64% 29.91 in 10.0 mi SW 4.6 mph - N/A   Clear
5:52 AM 34.0 °F 29.8 °F 23.0 °F 64% 29.94 in 10.0 mi West 4.6 mph - N/A   Clear
6:52 AM 33.1 °F 28.7 °F 21.9 °F 64% 29.94 in 10.0 mi West 4.6 mph - N/A   Clear
7:52 AM 37.0 °F 31.6 °F 21.9 °F 54% 29.97 in 10.0 mi West 6.9 mph - N/A   Clear
8:52 AM 39.0 °F 32.8 °F 23.0 °F 53% 29.98 in 10.0 mi SW 9.2 mph - N/A   Clear
9:52 AM 42.1 °F 36.1 °F 23.0 °F 47% 29.97 in 10.0 mi WSW 10.4 mph - N/A   Clear
10:52 AM 43.0 °F 40.3 °F 21.9 °F 43% 29.96 in 10.0 mi Variable 4.6 mph - N/A   Clear
11:52 AM 45.0 °F 42.6 °F 21.9 °F 40% 29.94 in 10.0 mi Variable 4.6 mph - N/A   Clear
12:52 PM 46.9 °F - 23.0 °F 39% 29.93 in 10.0 mi WSW 10.4 mph - N/A   Clear
1:52 PM 46.9 °F - 24.1 °F 41% 29.92 in 10.0 mi SSW 9.2 mph - N/A   Clear
2:52 PM 48.0 °F - 25.0 °F 41% 29.92 in 10.0 mi South 8.1 mph - N/A   Clear
3:52 PM 46.0 °F 41.4 °F 27.0 °F 47% 29.91 in 10.0 mi SSW 9.2 mph - N/A   Clear
4:52 PM 44.1 °F 40.1 °F 28.0 °F 53% 29.92 in 10.0 mi SW 6.9 mph - N/A   Clear
5:52 PM 42.1 °F 39.2 °F 30.0 °F 62% 29.93 in 10.0 mi SW 4.6 mph - N/A   Clear
6:52 PM 41.0 °F 39.0 °F 30.9 °F 67% 29.94 in 10.0 mi SSW 3.5 mph - N/A   Clear
7:52 PM 35.1 °F - 30.9 °F 85% 29.92 in 10.0 mi Calm Calm - N/A   Clear
8:52 PM 32.0 °F - 30.0 °F 92% 29.94 in 10.0 mi Calm Calm - N/A   Clear
9:52 PM 37.0 °F - 32.0 °F 82% 29.94 in 10.0 mi Calm Calm - N/A   Clear
10:52 PM 37.9 °F - 32.0 °F 79% 29.94 in 10.0 mi Calm Calm - N/A   Clear
11:52 PM 34.0 °F - 32.0 °F 92% 29.93 in 9.0 mi Calm Calm - N/A   Partly Cloudy